| time (UTC) | temp F | wind direction | speed knots | gust knots | rain 1hr in | rain 24hr in | rain mn in | humidity % | barometer mb |
| 20260505025335 | 66 | 214 | 2.6 | 7.0 | 0.00 | 0.03 | 0.03 | 66 | 1006.6 |
| 20260505024827 | 66 | 219 | 2.6 | 5.2 | 0.00 | 0.03 | 0.03 | 66 | 1006.5 |
| 20260505024339 | 66 | 218 | 3.5 | 5.2 | 0.00 | 0.03 | 0.03 | 65 | 1006.5 |
| 20260505023811 | 66 | 220 | 2.6 | 5.2 | 0.00 | 0.03 | 0.03 | 66 | 1006.4 |
| 20260505023324 | 66 | 214 | 2.6 | 5.2 | 0.00 | 0.03 | 0.03 | 65 | 1006.4 |
| 20260505022821 | 66 | 231 | 2.6 | 5.2 | 0.00 | 0.03 | 0.03 | 66 | 1006.3 |
| 20260505022314 | 66 | 212 | 2.6 | 6.1 | 0.00 | 0.03 | 0.03 | 66 | 1006.2 |
| 20260505021827 | 66 | 216 | 2.6 | 6.1 | 0.00 | 0.03 | 0.03 | 66 | 1006.1 |
| 20260505021319 | 66 | 217 | 2.6 | 6.1 | 0.00 | 0.03 | 0.03 | 66 | 1006.0 |
| 20260505020832 | 66 | 222 | 1.7 | 4.3 | 0.00 | 0.03 | 0.03 | 67 | 1005.9 |
| 20260505020324 | 66 | 214 | 2.6 | 4.3 | 0.00 | 0.03 | 0.03 | 67 | 1005.8 |
| 20260505015817 | 66 | 214 | 1.7 | 3.5 | 0.00 | 0.03 | 0.03 | 67 | 1005.7 |
| 20260505015329 | 66 | 211 | 1.7 | 4.3 | 0.00 | 0.03 | 0.03 | 66 | 1005.6 |
| 20260505014822 | 66 | 226 | 1.7 | 4.3 | 0.00 | 0.03 | 0.03 | 66 | 1005.5 |
| 20260505014318 | 67 | 212 | 1.7 | 4.3 | 0.00 | 0.03 | 0.03 | 65 | 1005.4 |
| 20260505013811 | 67 | 227 | 1.7 | 3.5 | 0.00 | 0.03 | 0.03 | 65 | 1005.4 |
| 20260505013323 | 67 | 215 | 1.7 | 4.3 | 0.00 | 0.03 | 0.03 | 65 | 1005.4 |
| 20260505012816 | 67 | 234 | 1.7 | 4.3 | 0.00 | 0.03 | 0.03 | 65 | 1005.4 |
| 20260505012329 | 67 | 210 | 0.9 | 4.3 | 0.00 | 0.03 | 0.03 | 64 | 1005.4 |
| 20260505011822 | 68 | 203 | 0.9 | 5.2 | 0.00 | 0.03 | 0.03 | 63 | 1005.4 |
| 20260505011315 | 68 | 236 | 1.7 | 5.2 | 0.00 | 0.03 | 0.03 | 62 | 1005.3 |
| 20260505010811 | 69 | 212 | 3.5 | 7.0 | 0.00 | 0.03 | 0.03 | 62 | 1005.3 |
| 20260505010324 | 69 | 232 | 3.5 | 7.0 | 0.00 | 0.03 | 0.03 | 61 | 1005.3 |
| 20260505005818 | 69 | 221 | 3.5 | 7.8 | 0.00 | 0.03 | 0.03 | 61 | 1005.3 |
| 20260505005350 | 69 | 224 | 4.3 | 7.8 | 0.00 | 0.03 | 0.03 | 61 | 1005.2 |
| 20260505004822 | 69 | 178 | 4.3 | 7.0 | 0.00 | 0.03 | 0.03 | 61 | 1005.3 |
| 20260505004315 | 69 | 214 | 3.5 | 6.1 | 0.00 | 0.03 | 0.03 | 61 | 1005.3 |
| 20260505003828 | 69 | 224 | 2.6 | 7.0 | 0.00 | 0.03 | 0.03 | 61 | 1005.4 |
| 20260505003320 | 70 | 205 | 2.6 | 7.8 | 0.00 | 0.03 | 0.03 | 60 | 1005.3 |
| 20260505002813 | 70 | 228 | 3.5 | 7.8 | 0.00 | 0.03 | 0.03 | 59 | 1005.4 |
| 20260505002330 | 71 | 205 | 4.3 | 11.3 | 0.00 | 0.03 | 0.03 | 58 | 1005.3 |
| 20260505001823 | 71 | 198 | 5.2 | 11.3 | 0.00 | 0.03 | 0.03 | 57 | 1005.3 |
| 20260505001316 | 71 | 210 | 5.2 | 10.4 | 0.00 | 0.03 | 0.03 | 56 | 1005.3 |
| 20260505000846 | 72 | 217 | 5.2 | 10.4 | 0.00 | 0.03 | 0.03 | 56 | 1005.3 |
| 20260505000318 | 72 | 203 | 5.2 | 8.7 | 0.00 | 0.03 | 0.03 | 56 | 1005.3 |
| 20260504235830 | 72 | 200 | 4.3 | 10.4 | 0.00 | 0.03 | 0.03 | 55 | 1005.4 |
| 20260504235322 | 73 | 218 | 5.2 | 11.3 | 0.00 | 0.03 | 0.03 | 54 | 1005.5 |
| 20260504234815 | 73 | 207 | 6.1 | 13.0 | 0.00 | 0.03 | 0.03 | 53 | 1005.5 |
| 20260504234312 | 74 | 213 | 5.2 | 13.0 | 0.00 | 0.03 | 0.03 | 53 | 1005.5 |
| 20260504233825 | 74 | 247 | 7.0 | 13.9 | 0.00 | 0.03 | 0.03 | 51 | 1005.6 |
| 20260504233317 | 74 | 206 | 7.8 | 13.9 | 0.00 | 0.03 | 0.03 | 51 | 1005.7 |
| 20260504232811 | 74 | 213 | 7.0 | 16.5 | 0.00 | 0.03 | 0.03 | 50 | 1005.7 |
| 20260504232323 | 74 | 203 | 7.8 | 16.5 | 0.00 | 0.03 | 0.03 | 50 | 1005.8 |
| 20260504231816 | 74 | 199 | 7.0 | 13.9 | 0.00 | 0.03 | 0.03 | 50 | 1005.9 |
| 20260504231329 | 74 | 214 | 6.1 | 13.9 | 0.00 | 0.03 | 0.03 | 51 | 1005.9 |
| 20260504230822 | 74 | 244 | 5.2 | 16.5 | 0.00 | 0.03 | 0.03 | 52 | 1006.0 |
| 20260504230319 | 73 | 197 | 7.8 | 16.5 | 0.00 | 0.03 | 0.03 | 51 | 1006.1 |
| 20260504225812 | 74 | 216 | 6.1 | 17.4 | 0.00 | 0.03 | 0.03 | 50 | 1006.1 |
| 20260504225325 | 74 | 208 | 7.8 | 17.4 | 0.00 | 0.03 | 0.03 | 49 | 1006.1 |
| 20260504224838 | 74 | 198 | 8.7 | 16.5 | 0.00 | 0.03 | 0.03 | 49 | 1006.1 |
| 20260504224330 | 74 | 243 | 10.4 | 15.6 | 0.00 | 0.03 | 0.03 | 50 | 1006.1 |
| 20260504223822 | 74 | 198 | 5.2 | 11.3 | 0.00 | 0.03 | 0.03 | 56 | 1006.3 |
| 20260504223314 | 74 | 210 | 6.1 | 11.3 | 0.00 | 0.03 | 0.03 | 56 | 1006.2 |
| 20260504222823 | 74 | 189 | 2.6 | 6.1 | 0.00 | 0.03 | 0.03 | 59 | 1006.3 |
| 20260504222315 | 74 | 133 | 2.6 | 5.2 | 0.00 | 0.03 | 0.03 | 58 | 1006.4 |
| 20260504221811 | 74 | 219 | 1.7 | 7.0 | 0.00 | 0.03 | 0.03 | 57 | 1006.5 |
| 20260504221324 | 74 | 221 | 1.7 | 7.0 | 0.00 | 0.03 | 0.03 | 57 | 1006.5 |
| 20260504220817 | 73 | 193 | 2.6 | 5.2 | 0.00 | 0.03 | 0.03 | 58 | 1006.6 |
| 20260504220330 | 73 | 219 | 1.7 | 4.3 | 0.00 | 0.03 | 0.03 | 59 | 1006.6 |
| 20260504215843 | 73 | 214 | 2.6 | 4.3 | 0.00 | 0.03 | 0.03 | 56 | 1006.6 |
| 20260504215315 | 73 | 215 | 0.9 | 4.3 | 0.00 | 0.03 | 0.03 | 56 | 1006.6 |
| 20260504214825 | 72 | 248 | 0.9 | 5.2 | 0.00 | 0.03 | 0.03 | 57 | 1006.6 |
| 20260504214318 | 72 | 211 | 1.7 | 6.1 | 0.00 | 0.03 | 0.03 | 57 | 1006.6 |
| 20260504213814 | 72 | 199 | 2.6 | 7.8 | 0.00 | 0.03 | 0.03 | 56 | 1006.5 |
| 20260504213327 | 72 | 262 | 2.6 | 7.8 | 0.00 | 0.03 | 0.03 | 57 | 1006.6 |
| 20260504212821 | 72 | 252 | 3.5 | 7.0 | 0.00 | 0.03 | 0.03 | 57 | 1006.5 |
| 20260504212333 | 72 | 233 | 3.5 | 9.6 | 0.00 | 0.03 | 0.03 | 56 | 1006.7 |
| 20260504211825 | 73 | 193 | 3.5 | 9.6 | 0.00 | 0.03 | 0.03 | 58 | 1007.1 |
| 20260504211317 | 73 | 184 | 3.5 | 7.8 | 0.00 | 0.03 | 0.03 | 57 | 1007.2 |
| 20260504210827 | 72 | 249 | 3.5 | 10.4 | 0.00 | 0.03 | 0.03 | 58 | 1007.4 |
| 20260504210319 | 72 | 269 | 5.2 | 11.3 | 0.00 | 0.03 | 0.03 | 57 | 1007.5 |
| 20260504205813 | 72 | 236 | 7.0 | 13.0 | 0.00 | 0.03 | 0.03 | 58 | 1007.6 |
| 20260504205329 | 72 | 274 | 8.7 | 13.0 | 0.00 | 0.03 | 0.03 | 58 | 1007.6 |
| 20260504204822 | 72 | 253 | 7.0 | 11.3 | 0.00 | 0.03 | 0.03 | 58 | 1007.7 |
| 20260504204315 | 72 | 211 | 6.1 | 10.4 | 0.00 | 0.03 | 0.03 | 58 | 1007.7 |
| 20260504203828 | 72 | 241 | 6.1 | 9.6 | 0.00 | 0.03 | 0.03 | 58 | 1007.7 |
| 20260504203320 | 72 | 231 | 5.2 | 10.4 | 0.00 | 0.03 | 0.03 | 59 | 1007.7 |
| 20260504202813 | 71 | 218 | 5.2 | 10.4 | 0.00 | 0.03 | 0.03 | 62 | 1007.7 |
| 20260504202326 | 70 | 233 | 7.0 | 13.0 | 0.00 | 0.03 | 0.03 | 62 | 1007.8 |
| 20260504201819 | 70 | 260 | 7.8 | 13.0 | 0.00 | 0.03 | 0.03 | 64 | 1008.0 |
| 20260504201316 | 70 | 252 | 6.1 | 9.6 | 0.00 | 0.03 | 0.03 | 64 | 1008.1 |
| 20260504200826 | 69 | 240 | 5.2 | 11.3 | 0.00 | 0.03 | 0.03 | 67 | 1008.2 |
| 20260504200318 | 69 | 242 | 7.0 | 13.0 | 0.01 | 0.03 | 0.03 | 67 | 1008.2 |
| 20260504195810 | 69 | 216 | 4.3 | 10.4 | 0.01 | 0.03 | 0.03 | 69 | 1008.2 |
| 20260504195323 | 69 | 212 | 5.2 | 10.4 | 0.01 | 0.03 | 0.03 | 70 | 1008.2 |
| 20260504194816 | 69 | 238 | 3.5 | 7.8 | 0.02 | 0.03 | 0.03 | 72 | 1008.3 |
| 20260504194329 | 69 | 208 | 4.3 | 7.8 | 0.02 | 0.03 | 0.03 | 73 | 1008.2 |
| 20260504193822 | 67 | 240 | 2.6 | 7.8 | 0.03 | 0.03 | 0.03 | 80 | 1008.3 |
| 20260504193319 | 66 | 199 | 3.5 | 7.0 | 0.03 | 0.03 | 0.03 | 78 | 1008.3 |
| 20260504192832 | 65 | 220 | 1.7 | 5.2 | 0.03 | 0.03 | 0.03 | 80 | 1008.3 |
| 20260504192324 | 64 | 252 | 3.5 | 7.8 | 0.03 | 0.03 | 0.03 | 81 | 1008.5 |
| 20260504191816 | 64 | 219 | 3.5 | 7.8 | 0.03 | 0.03 | 0.03 | 81 | 1008.6 |
| 20260504191329 | 63 | 216 | 3.5 | 7.8 | 0.03 | 0.03 | 0.03 | 80 | 1008.7 |
| 20260504190822 | 63 | 240 | 3.5 | 6.1 | 0.03 | 0.03 | 0.03 | 80 | 1008.7 |
| 20260504190315 | 63 | 231 | 0.0 | 7.0 | 0.02 | 0.02 | 0.02 | 80 | 1008.2 |
| 20260504185828 | 63 | 210 | 3.5 | 11.3 | 0.02 | 0.02 | 0.02 | 79 | 1008.8 |
| 20260504185324 | 64 | 259 | 7.0 | 20.9 | 0.02 | 0.02 | 0.02 | 77 | 1009.5 |
| 20260504184837 | 64 | 251 | 9.6 | 20.9 | 0.01 | 0.01 | 0.01 | 72 | 1009.3 |
| 20260504184328 | 65 | 256 | 6.1 | 10.4 | 0.00 | 0.00 | 0.00 | 74 | 1009.3 |
| 20260504183821 | 65 | 229 | 5.2 | 7.8 | 0.00 | 0.00 | 0.00 | 72 | 1008.9 |
| 20260504183314 | 66 | 210 | 4.3 | 7.8 | 0.00 | 0.00 | 0.00 | 70 | 1009.4 |
| 20260504182827 | 66 | 240 | 5.2 | 9.6 | 0.00 | 0.00 | 0.00 | 68 | 1009.4 |
| 20260504182320 | 67 | 260 | 6.1 | 11.3 | 0.00 | 0.00 | 0.00 | 66 | 1009.4 |
| 20260504181812 | 67 | 237 | 6.1 | 11.3 | 0.00 | 0.00 | 0.00 | 65 | 1009.2 |
| 20260504181325 | 67 | 250 | 5.2 | 12.2 | 0.00 | 0.00 | 0.00 | 65 | 1009.1 |
| 20260504180822 | 68 | 276 | 7.0 | 16.5 | 0.00 | 0.00 | 0.00 | 64 | 1009.2 |
| 20260504180316 | 68 | 233 | 9.6 | 16.5 | 0.00 | 0.00 | 0.00 | 63 | 1009.0 |
| 20260504175828 | 68 | 271 | 7.0 | 13.9 | 0.00 | 0.00 | 0.00 | 63 | 1008.9 |
| 20260504175321 | 69 | 243 | 7.0 | 14.8 | 0.00 | 0.00 | 0.00 | 62 | 1008.7 |
| 20260504174814 | 70 | 236 | 7.8 | 14.8 | 0.00 | 0.00 | 0.00 | 61 | 1008.7 |
| 20260504174326 | 70 | 252 | 8.7 | 13.9 | 0.00 | 0.00 | 0.00 | 60 | 1008.6 |
| 20260504173820 | 70 | 226 | 5.2 | 13.9 | 0.00 | 0.00 | 0.00 | 63 | 1008.4 |
| 20260504173316 | 70 | 224 | 7.8 | 15.6 | 0.00 | 0.00 | 0.00 | 60 | 1008.3 |
| 20260504172850 | 70 | 226 | 8.7 | 15.6 | 0.00 | 0.00 | 0.00 | 60 | 1008.2 |
| 20260504172321 | 70 | 211 | 7.0 | 12.2 | 0.00 | 0.00 | 0.00 | 61 | 1008.1 |
| 20260504171814 | 70 | 211 | 6.1 | 11.3 | 0.00 | 0.00 | 0.00 | 63 | 1008.2 |
| 20260504171327 | 69 | 208 | 5.2 | 14.8 | 0.00 | 0.00 | 0.00 | 64 | 1008.3 |
| 20260504170840 | 69 | 207 | 7.0 | 8.7 | 0.00 | 0.00 | 0.00 | 64 | 1008.3 |
| 20260504170311 | 68 | 205 | 5.2 | 10.4 | 0.00 | 0.00 | 0.00 | 65 | 1008.4 |
| 20260504160326 | 66 | 251 | 4.3 | 7.8 | 0.00 | 0.00 | 0.00 | 67 | 1009.1 |
| 20260504150834 | 65 | 250 | 3.5 | 9.6 | 0.00 | 0.00 | 0.00 | 68 | 1009.2 |
| 20260504150325 | 64 | 212 | 3.5 | 10.4 | 0.00 | 0.00 | 0.00 | 67 | 1009.2 |
| 20260504141316 | 61 | 249 | 4.3 | 9.6 | 0.00 | 0.00 | 0.00 | 72 | 1009.2 |
| 20260504140850 | 61 | 208 | 5.2 | 9.6 | 0.00 | 0.00 | 0.00 | 72 | 1009.3 |
| 20260504140342 | 60 | 232 | 4.3 | 11.3 | 0.00 | 0.00 | 0.00 | 71 | 1009.3 |
| 20260504130320 | 55 | 176 | 3.5 | 8.7 | 0.00 | 0.00 | 0.00 | 78 | 1009.5 |
| 20260504120318 | 52 | 205 | 3.5 | 7.0 | 0.00 | 0.00 | 0.00 | 78 | 1009.7 |
| 20260504110333 | 51 | 209 | 2.6 | 6.1 | 0.00 | 0.00 | 0.00 | 75 | 1009.7 |
| 20260504100312 | 50 | 213 | 3.5 | 5.2 | 0.00 | 0.00 | 0.00 | 75 | 1009.8 |
| 20260504081825 | 50 | 229 | 2.6 | 4.3 | 0.00 | 0.00 | 0.00 | 73 | 1010.4 |
| 20260504081338 | 50 | 221 | 1.7 | 3.5 | 0.00 | 0.00 | 0.00 | 73 | 1010.4 |
| 20260504080827 | 50 | 208 | 1.7 | 4.3 | 0.00 | 0.00 | 0.00 | 73 | 1010.5 |
| 20260504080320 | 50 | 226 | 1.7 | 6.1 | 0.00 | 0.00 | 0.00 | 73 | 1010.6 |
| 20260504070347 | 51 | 200 | 1.7 | 6.1 | 0.00 | 0.00 | 0.00 | 71 | 1011.0 |
| 20260504050321 | 48 | 249 | 0.0 | 1.7 | 0.00 | 0.00 | 0.00 | 77 | 1012.3 |
| 20260504045814 | 47 | 201 | 0.0 | 1.7 | 0.00 | 0.00 | 0.00 | 77 | 1012.3 |
| 20260504045326 | 48 | 211 | 0.0 | 0.9 | 0.00 | 0.00 | 0.00 | 77 | 1012.3 |
| 20260504044819 | 47 | 211 | 0.0 | 0.9 | 0.00 | 0.00 | 0.00 | 78 | 1012.3 |
| 20260504044312 | 47 | 211 | 0.0 | 0.9 | 0.00 | 0.00 | 0.00 | 78 | 1012.3 |
| 20260504043825 | 47 | 144 | 0.0 | 0.0 | 0.00 | 0.00 | 0.00 | 79 | 1012.3 |
| 20260504043318 | 46 | 210 | 0.0 | 0.9 | 0.00 | 0.00 | 0.00 | 78 | 1012.4 |
| 20260504042810 | 46 | 210 | 0.0 | 0.0 | 0.00 | 0.00 | 0.00 | 78 | 1012.4 |
| 20260504042327 | 47 | 210 | 0.0 | 0.0 | 0.00 | 0.00 | 0.00 | 77 | 1012.5 |
| 20260504041820 | 47 | 210 | 0.0 | 0.0 | 0.00 | 0.00 | 0.00 | 76 | 1012.5 |
| 20260504041313 | 48 | 210 | 0.0 | 0.0 | 0.00 | 0.00 | 0.00 | 75 | 1012.6 |
| 20260504040825 | 48 | 210 | 0.0 | 0.0 | 0.00 | 0.00 | 0.00 | 74 | 1012.7 |
| 20260504040318 | 48 | 210 | 0.0 | 0.0 | 0.00 | 0.00 | 0.00 | 74 | 1012.7 |
| 20260504035811 | 49 | 199 | 0.0 | 0.9 | 0.00 | 0.00 | 0.00 | 73 | 1012.7 |
| 20260504035324 | 49 | 199 | 0.0 | 0.9 | 0.00 | 0.00 | 0.00 | 71 | 1012.7 |
| 20260504034816 | 50 | 224 | 0.0 | 1.7 | 0.00 | 0.00 | 0.00 | 71 | 1012.8 |
| 20260504034314 | 50 | 179 | 0.0 | 2.6 | 0.00 | 0.00 | 0.00 | 70 | 1012.8 |
| 20260504033826 | 50 | 157 | 0.0 | 2.6 | 0.00 | 0.00 | 0.00 | 70 | 1012.8 |
| 20260504033319 | 50 | 213 | 0.0 | 1.7 | 0.00 | 0.00 | 0.00 | 70 | 1012.9 |
| 20260504032812 | 50 | 211 | 0.0 | 0.9 | 0.00 | 0.00 | 0.00 | 69 | 1012.9 |
| 20260504032325 | 51 | 146 | 0.0 | 0.9 | 0.00 | 0.00 | 0.00 | 69 | 1013.0 |
| 20260504031817 | 51 | 212 | 0.0 | 0.9 | 0.00 | 0.00 | 0.00 | 68 | 1013.0 |
| 20260504031311 | 51 | 207 | 0.0 | 1.7 | 0.00 | 0.00 | 0.00 | 67 | 1013.0 |
| 20260504030823 | 52 | 228 | 0.0 | 1.7 | 0.00 | 0.00 | 0.00 | 67 | 1013.0 |
| 20260504030320 | 52 | 211 | 0.0 | 2.6 | 0.00 | 0.00 | 0.00 | 66 | 1013.1 |
| 20260504025813 | 52 | 217 | 0.9 | 2.6 | 0.00 | 0.00 | 0.00 | 66 | 1013.1 |
| 20260504025346 | 52 | 179 | 0.0 | 1.7 | 0.00 | 0.00 | 0.00 | 65 | 1013.2 |